Theta_e
315 315 314 314 313 312 312 312 313 313 314 315 314 313 315 316 316 321 322 321 320 322 322 326 328 328 329 327 320 321 332 331 332 330 329 325 326 323 322 329 332 333 332 332 330
315 314 315 314 313 312 311 312 312 312 313 313 312 311 312 315 318 319 320 318 320 320 324 326 328 329 330 331 327 330 332 330 328 328 328 326 326 327 326 325 331 333 331 329 331
316 315 314 314 314 313 311 311 311 313 312 311 313 311 312 316 313 311 312 317 320 322 323 326 327 328 330 331 331 330 329 328 326 325 324 326 326 325 327 328 327 330 329 328 331
316 316 315 314 314 313 312 309 311 312 312 312 313 310 313 316 305 316 314 315 321 323 323 325 328 328 329 331 329 332 330 329 328 323 323 326 326 327 327 329 325 327 323 326 330
315 315 316 314 313 313 313 310 310 312 312 312 312 309 316 315 311 315 316 316 322 323 323 324 329 327 324 327 329 331 329 328 326 323 322 324 326 327 327 326 324 322 322 324 327
312 315 315 316 314 313 313 311 309 311 312 312 312 309 314 313 310 309 317 316 319 321 323 323 324 326 326 326 326 327 329 328 327 327 326 326 327 325 326 326 326 325 325 326 327
312 312 315 316 316 313 312 312 309 310 312 311 312 313 312 311 310 310 315 320 320 319 322 323 323 324 325 327 324 326 327 327 328 328 328 327 329 329 327 326 327 326 325 325 326
311 312 312 315 316 314 312 312 309 309 312 312 312 313 310 310 311 315 315 319 321 320 321 322 323 323 325 323 325 325 325 326 320 324 325 327 321 320 323 324 324 324 324 324 324
310 312 311 314 315 315 313 312 309 309 312 312 312 312 312 309 311 310 314 319 321 320 320 320 322 323 325 324 324 327 324 324 321 324 323 327 324 323 322 322 322 322 321 322 322
309 310 312 311 315 316 314 312 310 310 311 311 311 310 309 309 311 310 312 319 319 320 320 322 322 322 322 323 321 320 324 321 321 323 325 326 326 324 323 323 323 323 323 323 323
307 309 310 311 314 315 314 313 311 311 311 312 311 310 308 310 311 311 312 318 319 320 320 320 322 322 320 322 318 317 318 319 318 318 320 320 320 319 318 319 321 320 320 320 321
307 308 309 310 312 315 315 312 310 309 312 309 308 309 309 312 311 312 313 317 319 319 318 320 321 318 317 319 321 320 320 320 319 318 318 318 318 317 319 319 320 321 321 321 321
306 308 309 308 310 315 314 312 310 308 310 310 308 310 310 311 310 311 314 316 318 317 320 318 316 316 318 319 320 319 318 319 319 317 318 321 323 320 319 319 320 320 321 321 322
302 305 308 308 312 315 315 311 308 306 310 310 310 310 311 311 311 310 314 315 317 317 317 319 315 318 319 320 319 320 316 318 319 320 321 321 324 319 319 320 320 320 321 321 321
299 304 307 308 311 314 314 310 307 305 313 309 310 308 310 310 311 313 314 313 314 316 318 318 317 317 320 319 317 317 318 319 321 322 324 322 326 320 319 320 319 318 318 319 320
298 302 303 309 311 312 313 308 305 307 311 310 309 310 312 310 311 313 314 312 312 314 315 314 312 314 316 316 318 317 319 319 319 319 322 319 319 316 314 314 315 315 316 317 318
300 299 301 307 311 311 310 306 310 310 307 309 310 311 311 311 311 312 313 314 313 315 315 313 314 314 312 316 316 317 318 319 319 320 319 314 317 318 314 315 315 315 315 316 317
300 301 302 300 309 311 307 309 314 310 310 307 309 310 310 311 311 312 312 312 312 309 311 314 314 314 315 313 315 318 315 315 315 316 313 315 316 315 315 317 317 317 318 319 319
300 300 301 301 304 311 310 313 314 308 307 309 310 311 310 310 310 311 311 312 312 309 308 310 309 310 314 314 313 315 317 313 317 315 319 316 315 314 314 313 313 314 315 317 318
300 301 300 299 303 310 308 313 312 306 307 308 310 310 311 311 311 312 311 310 311 310 308 310 311 310 312 312 313 315 313 316 316 315 314 311 312 313 313 312 312 314 314 314 315
300 300 300 300 304 305 311 311 307 305 306 308 310 310 309 311 310 312 312 308 310 311 309 309 309 313 312 315 316 314 318 316 314 314 312 310 309 311 312 313 314 314 313 314 314
301 300 300 300 303 307 309 308 304 306 307 303 308 309 309 310 310 311 310 308 309 311 312 309 308 311 312 311 311 314 314 314 314 314 314 313 312 310 311 312 312 313 313 314 313
299 300 300 302 305 309 304 304 305 307 307 307 307 306 307 308 309 309 308 308 306 311 311 311 312 310 311 310 310 313 313 313 313 313 316 316 311 310 312 312 312 312 312 313 313
298 302 302 302 304 307 308 306 306 306 307 306 305 305 307 308 305 309 307 305 305 310 311 310 309 310 309 305 308 312 312 312 314 316 315 315 313 312 311 311 310 311 312 313 313
297 302 299 304 304 306 306 306 307 307 305 306 306 307 307 308 306 307 306 306 306 309 310 311 312 309 308 306 308 310 311 312 313 313 313 311 309 310 311 310 311 311 312 312 311
300 302 299 303 302 305 305 307 307 306 306 306 306 307 307 307 307 307 307 307 307 308 310 310 310 309 307 308 309 310 308 310 312 314 312 312 312 311 310 311 310 310 310 310 310
294 297 303 304 304 306 306 306 307 305 305 306 306 307 306 306 305 305 305 306 307 307 309 310 310 309 309 309 309 309 309 310 311 310 310 312 312 311 310 309 307 307 310 309 310
Wind_Speed
28 27 24 22 20 17 17 18 17 16 15 14 13 13 10 7 5 5 7 6 6 2 2 4 3 4 4 3 2 2 6 9 10 8 2 4 5 2 2 3 1 1 0 3 9
31 29 27 25 23 19 19 19 19 16 15 15 12 11 9 7 4 12 10 8 5 7 3 7 7 6 3 4 3 6 9 13 5 6 5 7 4 1 2 2 4 5 4 5 15
34 32 31 27 25 23 19 19 19 18 15 14 12 9 8 5 3 7 15 17 11 7 5 2 7 3 5 4 4 4 12 10 6 5 4 6 5 3 4 7 5 6 8 8 15
35 35 34 31 28 26 22 21 20 19 16 15 12 9 8 8 6 1 1 14 14 11 6 3 3 6 7 8 4 5 6 5 3 3 3 3 2 5 9 11 2 4 2 8 14
34 36 36 34 32 29 26 22 21 22 19 17 14 11 8 6 6 4 1 3 14 11 10 9 8 7 10 8 5 7 5 5 5 1 4 0 8 10 10 13 7 7 8 10 13
35 36 38 38 35 32 29 25 22 23 21 20 16 14 8 12 4 6 6 2 13 14 12 10 7 2 4 5 9 6 9 7 1 1 3 5 13 5 13 17 14 14 17 15 15
36 37 38 39 38 35 31 28 24 25 22 22 19 16 11 15 1 5 7 4 11 17 12 12 5 10 7 5 4 5 5 5 6 6 8 6 16 16 22 20 21 19 17 18 19
39 39 38 40 40 37 34 31 26 26 23 22 19 14 8 11 13 3 7 5 9 10 8 10 4 6 7 8 6 7 5 6 7 14 7 9 19 11 13 19 22 23 22 18 21
40 41 41 40 42 41 37 33 28 27 24 20 13 11 6 7 12 17 6 5 9 9 5 7 5 5 5 9 5 7 9 13 5 9 5 14 12 5 11 16 17 18 17 16 17
41 42 41 41 43 44 40 34 28 26 21 16 7 5 5 10 9 15 12 9 5 12 7 8 7 9 9 11 10 10 11 7 11 5 8 14 19 18 16 18 21 21 20 20 20
43 42 44 43 44 46 43 33 11 7 20 7 8 4 5 5 9 11 15 12 6 12 12 16 13 18 21 20 9 2 9 10 4 2 6 14 20 20 20 21 22 22 22 22 22
39 41 44 43 45 49 47 16 31 9 14 13 6 7 6 9 6 11 19 14 12 17 17 7 20 18 16 16 17 12 9 9 7 7 10 18 26 22 23 24 22 23 23 24 22
40 39 44 46 45 50 46 46 39 30 8 9 6 14 7 11 6 18 22 15 18 20 23 14 3 20 17 15 17 15 15 13 12 11 16 18 21 18 20 22 22 23 25 24 23
43 49 43 47 43 49 39 51 43 24 6 11 12 9 11 8 6 18 21 15 8 22 20 16 7 16 16 18 15 14 12 13 10 6 6 1 9 15 13 17 17 19 19 21 23
46 33 39 51 42 34 33 50 44 10 7 19 15 18 17 18 13 11 23 9 14 13 13 10 14 11 21 19 16 9 7 11 10 7 5 11 7 4 8 11 18 18 19 20 22
45 39 42 43 45 44 41 52 27 7 11 13 17 23 24 20 9 14 19 7 5 8 11 6 1 8 8 9 16 7 5 3 3 5 9 13 12 20 14 17 14 15 14 17 19
42 47 47 30 32 44 51 26 13 13 16 12 18 25 32 17 19 17 26 20 14 10 14 5 5 2 5 12 3 12 12 4 5 6 8 2 12 24 11 10 15 22 23 20 17
46 39 42 33 41 46 38 14 16 15 15 11 17 26 25 24 19 21 26 22 23 17 13 13 9 12 11 12 9 18 14 6 7 6 5 5 13 9 6 7 12 14 19 18 16
35 34 36 37 38 49 19 29 19 20 14 19 23 25 11 18 13 16 25 27 26 26 14 16 15 8 9 6 12 7 16 14 2 1 4 7 14 20 20 22 21 21 17 19 12
33 29 28 45 42 31 17 23 17 18 20 24 15 19 17 24 18 20 24 24 23 28 18 9 5 6 9 5 5 10 12 6 8 7 8 11 16 16 8 12 18 17 15 11 12
29 7 16 40 33 16 24 16 8 19 25 24 16 12 18 26 25 27 29 11 30 28 19 12 4 5 10 12 16 4 12 7 7 9 7 8 12 11 14 13 10 13 10 15 15
9 8 11 35 15 18 16 10 16 30 23 5 10 13 22 29 24 25 25 23 27 25 27 12 3 7 14 1 5 20 17 19 8 8 10 10 17 3 8 11 15 20 19 17 15
6 4 10 26 12 10 9 7 11 29 25 15 13 6 16 23 14 22 22 17 11 24 24 15 7 6 4 4 4 11 16 20 19 4 13 12 15 6 9 10 12 15 19 20 23
4 7 5 6 9 6 12 8 13 23 18 14 15 11 16 20 5 22 16 10 12 22 15 20 8 17 15 7 13 15 21 22 22 11 23 17 28 26 22 23 21 19 20 21 22
2 4 1 7 6 9 8 6 22 11 5 17 10 17 21 11 8 11 15 8 13 24 16 14 16 13 17 5 13 14 23 24 24 32 17 27 24 26 29 21 19 21 23 25 24
4 3 2 4 9 9 9 13 26 12 13 13 15 26 23 18 16 22 18 18 15 18 22 15 3 11 5 10 8 7 12 19 26 26 24 28 27 31 27 21 20 22 22 23 22
2 1 1 7 9 9 8 10 22 20 4 18 25 22 22 23 17 20 11 20 12 21 23 14 7 8 9 9 5 9 27 22 18 24 24 22 29 23 18 18 17 20 22 20 19
Wind_Direction
234 232 231 231 232 226 224 223 226 227 225 241 243 247 248 262 267 227 226 226 245 200 206 186 180 137 121 112 122 198 219 234 235 202 208 146 196 119 307 262 223 172 203 108 151
237 233 231 228 230 229 221 221 223 226 230 236 241 241 235 242 263 251 231 231 233 227 247 206 181 159 136 140 156 208 222 231 227 211 221 170 207 187 257 192 207 209 190 163 163
236 234 230 228 228 228 223 215 219 219 228 228 222 229 204 186 273 253 237 226 215 215 220 193 168 173 169 179 169 181 229 230 217 211 206 184 202 201 230 254 246 248 201 175 180
240 237 234 227 225 228 225 217 215 215 216 215 215 213 183 169 221 25 163 207 201 206 200 165 183 191 188 183 165 206 229 233 228 169 171 217 159 223 228 256 343 233 164 193 203
240 236 233 229 223 222 223 220 213 211 210 210 212 201 175 206 240 198 167 164 189 178 202 206 191 195 197 188 151 220 194 211 240 85 223 225 249 270 253 253 245 221 242 235 230
241 235 233 230 227 221 219 217 214 208 208 207 206 194 197 219 234 222 223 227 186 185 189 202 224 209 150 179 207 182 222 227 301 127 222 241 250 243 251 256 261 247 245 252 236
241 236 231 229 225 222 218 212 212 208 208 202 199 188 215 224 209 202 187 181 189 190 187 201 227 197 156 159 161 155 239 247 224 239 244 233 254 239 253 260 263 260 255 260 247
237 236 232 226 223 219 216 209 207 204 204 201 195 191 232 234 225 192 173 178 191 185 203 199 212 202 212 132 141 195 218 226 206 219 221 198 260 250 253 264 261 268 268 257 257
234 231 230 225 219 217 213 206 203 197 194 193 178 197 229 206 197 214 187 168 165 186 181 177 201 214 193 194 189 197 221 214 219 200 215 210 269 244 253 263 264 266 275 273 266
237 231 227 224 217 214 209 202 197 192 191 179 188 177 188 213 186 191 195 176 154 171 185 184 208 214 215 199 213 221 219 220 222 155 216 249 255 264 263 266 271 276 274 271 270
234 229 225 223 216 210 202 173 160 187 187 177 178 183 153 155 152 174 176 168 137 183 188 189 201 209 208 211 213 185 231 245 253 266 304 264 270 271 272 266 264 268 271 270 268
232 228 223 222 215 205 191 185 186 164 181 204 186 169 155 167 159 183 174 174 189 187 184 188 218 215 216 219 223 223 241 240 270 267 283 281 276 274 271 263 261 262 267 269 266
242 226 221 220 214 202 191 184 181 155 163 189 162 198 158 183 189 188 186 190 195 192 192 197 182 208 209 203 216 232 237 241 250 283 272 279 284 270 266 261 255 254 258 263 267
260 224 222 215 207 204 196 177 173 169 166 174 185 198 172 170 222 178 196 180 188 203 195 223 188 189 204 210 201 227 223 236 238 256 264 162 285 284 280 275 261 255 257 262 263
255 226 226 212 206 210 190 173 170 126 221 164 168 162 168 180 134 186 183 196 193 185 186 192 193 187 208 210 200 214 215 211 230 237 286 250 279 250 230 262 272 269 262 262 259
241 238 238 216 209 208 177 165 150 211 196 162 150 169 166 193 177 142 176 182 167 183 229 216 19 202 191 188 193 175 172 180 235 264 260 246 241 272 253 252 261 274 266 265 266
227 234 225 220 203 197 165 150 195 200 152 155 163 170 176 171 171 170 179 185 176 169 201 179 197 179 179 187 150 186 180 182 204 205 244 222 214 248 294 277 267 282 282 282 284
218 220 224 247 209 188 162 180 208 157 160 163 162 168 181 160 182 182 177 191 203 200 170 189 204 195 181 200 185 192 187 187 204 204 246 203 234 256 246 271 271 268 279 285 283
218 217 220 235 231 183 180 193 209 134 141 158 149 165 161 170 162 178 188 196 198 197 191 198 217 189 189 166 164 179 218 214 342 137 266 230 259 275 262 266 270 269 270 287 301
205 209 222 225 228 199 200 190 178 141 148 150 153 174 164 173 167 184 190 201 201 202 213 181 181 194 172 164 203 198 161 164 211 219 232 241 255 252 264 281 290 298 302 301 320
202 209 229 216 212 224 198 199 121 154 146 170 148 156 182 175 185 186 189 175 196 191 196 172 158 149 151 211 183 177 196 204 194 217 232 262 248 242 254 263 288 308 312 307 317
188 202 189 196 220 195 196 158 146 161 163 118 144 153 179 182 185 187 198 201 196 181 190 178 136 168 194 154 231 221 215 199 197 203 237 263 265 219 270 273 291 299 299 315 304
180 170 227 180 229 192 128 98 148 158 161 148 165 170 173 174 182 197 201 199 193 180 184 179 186 139 162 240 217 220 214 223 226 272 233 222 253 238 258 261 253 288 308 310 310
134 174 201 220 222 198 147 141 138 169 166 162 133 130 147 167 160 190 189 174 197 187 180 165 185 205 207 197 165 206 213 214 214 228 239 229 250 269 269 271 291 304 302 297 298
158 185 239 179 170 151 109 135 145 155 167 170 161 158 151 157 148 182 169 137 181 187 184 185 214 211 232 231 188 208 209 210 213 224 220 248 251 266 270 285 307 303 294 295 295
152 176 59 104 148 144 153 167 160 151 152 179 165 171 172 161 181 182 167 173 170 182 189 195 229 192 219 209 213 209 212 219 224 234 237 253 269 254 279 301 293 292 299 298 302
146 44 107 141 151 155 168 151 165 148 226 186 174 164 178 190 185 168 165 160 165 172 185 180 157 163 224 185 182 271 229 215 221 224 226 235 241 271 285 294 298 302 301 303 311